Weather History for PAQT - June, 2013

Change the Weather History Date:

Thursday, June 6, 2013

  Actual Average (PAKU) Record (PAKU)
Temperature  
Mean Temperature 31 °F -  
Max Temperature 36 °F 37 °F 62 °F (2002)
Min Temperature 26 °F 28 °F 12 °F (2005)
Degree Days  
Heating Degree Days 34    
Moisture  
Dew Point 26 °F    
Average Humidity 82    
Maximum Humidity 92    
Minimum Humidity 75    
Precipitation  
Precipitation 0.00 in - - ()
Sea Level Pressure  
Sea Level Pressure 29.93 in    
Wind  
Wind Speed 8 mph (East)    
Max Wind Speed 14 mph    
Max Gust Speed -    
Visibility 10 miles    
Events      
Averages and records for this station are not official NWS values.
T = Trace of Precipitation, MM = Missing Value Source: NWS Daily Summary

Daily Weather History Graph

Daily Weather History Graph

Search for Another Location

Airport or City:

Trip Planner

Search our weather history database for the weather conditions in past years. The results will help you decide how hot, cold, wet, or windy it might be!

Date:

Astronomy

Dec. 31, 1969 Rise Set
Actual Time Sun does not rise Sun does not rise
Civil Twilight Sun does not rise Sun does not rise
Nautical Twilight Sun does not rise Sun does not rise
Astronomical Twilight Sun does not rise Sun does not rise
Moon 2:12 AM AKDT (6/6) No Moon Set
Length of Visible Light 24h 00m
Length of Day
24h 00m
Waning Crescent, 3% of the Moon is Illuminated
Jun 6
Waning Crescent
Jun 8
New
Jun 16
First Quarter
Jun 23
Full
Jun 29
Last Quarter

Hourly Weather History & Observations

Time (AKDT) Temp. Windchill Dew Point Humidity Pressure Visibility Wind Dir Wind Speed Gust Speed Precip Events Conditions
12:53 AM 28.0 °F 19.3 °F 23.0 °F 81% 29.90 in 10.0 mi East 9.2 mph - 0.00 in   Overcast
1:16 AM 28.4 °F 20.4 °F 23.0 °F 80% 29.90 in 10.0 mi East 8.1 mph - N/A   Overcast
1:53 AM 28.0 °F 19.3 °F 23.0 °F 81% 29.91 in 10.0 mi East 9.2 mph - N/A   Overcast
2:53 AM 27.0 °F 19.5 °F 23.0 °F 85% 29.90 in 10.0 mi East 6.9 mph - N/A   Overcast
3:27 AM 26.6 °F 19.1 °F 21.2 °F 80% 29.90 in 10.0 mi ESE 6.9 mph - N/A   Overcast
3:48 AM 26.6 °F 17.5 °F 23.0 °F 86% 29.90 in 10.0 mi ESE 9.2 mph - N/A   Overcast
3:53 AM 27.0 °F 20.5 °F 23.0 °F 85% 29.90 in 10.0 mi East 5.8 mph - N/A   Overcast
4:53 AM 28.0 °F 20.0 °F 24.1 °F 85% 29.90 in 10.0 mi East 8.1 mph - N/A   Overcast
5:53 AM 27.0 °F 20.5 °F 25.0 °F 92% 29.90 in 10.0 mi ENE 5.8 mph - N/A   Overcast
6:53 AM 27.0 °F 18.7 °F 24.1 °F 89% 29.91 in 10.0 mi East 8.1 mph - N/A   Overcast
7:53 AM 28.0 °F 20.8 °F 24.1 °F 85% 29.91 in 10.0 mi East 6.9 mph - N/A   Overcast
8:53 AM 28.0 °F 20.0 °F 25.0 °F 88% 29.91 in 10.0 mi NE 8.1 mph - N/A   Overcast
9:53 AM 28.0 °F 24.2 °F 24.1 °F 85% 29.92 in 10.0 mi Variable 3.5 mph - N/A   Overcast
10:53 AM 28.9 °F 22.8 °F 24.1 °F 82% 29.93 in 10.0 mi ESE 5.8 mph - N/A   Overcast
11:53 AM 28.9 °F 25.2 °F 25.0 °F 85% 29.94 in 10.0 mi Variable 3.5 mph - N/A   Overcast
12:53 PM 30.9 °F 24.3 °F 25.0 °F 79% 29.94 in 10.0 mi East 6.9 mph - N/A   Overcast
1:17 PM 30.2 °F 24.3 °F 24.8 °F 80% 29.94 in 10.0 mi ESE 5.8 mph - N/A   Overcast
1:53 PM 30.9 °F 25.2 °F 25.0 °F 79% 29.95 in 10.0 mi East 5.8 mph - N/A   Overcast
2:53 PM 33.1 °F 27.7 °F 27.0 °F 78% 29.95 in 10.0 mi ENE 5.8 mph - N/A   Mostly Cloudy
3:17 PM 33.8 °F 27.0 °F 26.6 °F 75% 29.95 in 10.0 mi East 8.1 mph - N/A   Scattered Clouds
3:53 PM 34.0 °F 27.2 °F 28.0 °F 79% 29.95 in 10.0 mi NE 8.1 mph - N/A   Partly Cloudy
4:53 PM 34.0 °F 26.6 °F 28.9 °F 82% 29.96 in 10.0 mi NE 9.2 mph - N/A   Clear
5:53 PM 35.1 °F 28.6 °F 28.0 °F 76% 29.95 in 10.0 mi East 8.1 mph - N/A   Clear
6:53 PM 36.0 °F 29.0 °F 28.9 °F 76% 29.95 in 10.0 mi ENE 9.2 mph - N/A   Clear
7:53 PM 36.0 °F 28.5 °F 28.9 °F 76% 29.95 in 10.0 mi East 10.4 mph - N/A   Clear
8:53 PM 36.0 °F 28.5 °F 28.9 °F 76% 29.95 in 10.0 mi East 10.4 mph - N/A   Clear
9:53 PM 35.1 °F 26.4 °F 28.9 °F 78% 29.95 in 10.0 mi East 12.7 mph - N/A   Clear
10:53 PM 33.1 °F 23.4 °F 28.9 °F 85% 29.96 in 10.0 mi East 13.8 mph - N/A   Clear
11:53 PM 32.0 °F 23.6 °F 28.9 °F 88% 29.96 in 10.0 mi East 10.4 mph - N/A   Clear